Year,Month,Day,Hour,Minute,Value (Times are PST for temperature in C)
2019,05,08,00,00,11.90
2019,05,08,00,01,11.90
2019,05,08,00,02,11.90
2019,05,08,00,03,11.90
2019,05,08,00,04,11.80
2019,05,08,00,05,11.80
2019,05,08,00,06,11.80
2019,05,08,00,07,11.80
2019,05,08,00,08,11.80
2019,05,08,00,09,11.70
2019,05,08,00,10,11.70
2019,05,08,00,11,11.70
2019,05,08,00,12,11.70
2019,05,08,00,13,11.60
2019,05,08,00,14,11.60
2019,05,08,00,15,11.60
2019,05,08,00,16,11.60
2019,05,08,00,17,11.60
2019,05,08,00,18,11.50
2019,05,08,00,19,11.50
2019,05,08,00,20,11.50
2019,05,08,00,21,11.50
2019,05,08,00,22,11.40
2019,05,08,00,23,11.40
2019,05,08,00,24,11.40
2019,05,08,00,25,11.40
2019,05,08,00,26,11.40
2019,05,08,00,27,11.40
2019,05,08,00,28,11.40
2019,05,08,00,29,11.40
2019,05,08,00,30,11.40
2019,05,08,00,31,11.40
2019,05,08,00,32,11.30
2019,05,08,00,33,11.30
2019,05,08,00,34,11.30
2019,05,08,00,35,11.30
2019,05,08,00,36,11.30
2019,05,08,00,37,11.30
2019,05,08,00,38,11.30
2019,05,08,00,39,11.30
2019,05,08,00,40,11.30
2019,05,08,00,41,11.30
2019,05,08,00,42,11.40
2019,05,08,00,43,11.40
2019,05,08,00,44,11.40
2019,05,08,00,45,11.40
2019,05,08,00,46,11.40
2019,05,08,00,47,11.40
2019,05,08,00,48,11.40
2019,05,08,00,49,11.40
2019,05,08,00,50,11.40
2019,05,08,00,51,11.40
2019,05,08,00,52,11.40
2019,05,08,00,53,11.50
2019,05,08,00,54,11.60
2019,05,08,00,55,11.60
2019,05,08,00,56,11.60
2019,05,08,00,57,11.60
2019,05,08,00,58,11.60
2019,05,08,00,59,11.60
2019,05,08,01,00,11.60
2019,05,08,01,01,11.60
2019,05,08,01,02,11.70
2019,05,08,01,03,11.70
2019,05,08,01,04,11.70
2019,05,08,01,05,11.70
2019,05,08,01,06,11.70
2019,05,08,01,07,11.70
2019,05,08,01,08,11.70
2019,05,08,01,09,11.70
2019,05,08,01,10,11.70
2019,05,08,01,11,11.70
2019,05,08,01,12,11.70
2019,05,08,01,13,11.80
2019,05,08,01,14,11.80
2019,05,08,01,15,11.80
2019,05,08,01,16,11.90
2019,05,08,01,17,12.00
2019,05,08,01,18,12.00
2019,05,08,01,19,12.10
2019,05,08,01,20,12.10
2019,05,08,01,21,12.20
2019,05,08,01,22,12.20
2019,05,08,01,23,12.30
2019,05,08,01,24,12.30
2019,05,08,01,25,12.30
2019,05,08,01,26,12.30
2019,05,08,01,27,12.40
2019,05,08,01,28,12.40
2019,05,08,01,29,12.40
2019,05,08,01,30,12.40
2019,05,08,01,31,12.40
2019,05,08,01,32,12.40
2019,05,08,01,33,12.40
2019,05,08,01,34,12.50
2019,05,08,01,35,12.50
2019,05,08,01,36,12.50
2019,05,08,01,37,12.60
2019,05,08,01,38,12.60
2019,05,08,01,39,12.70
2019,05,08,01,40,12.80
2019,05,08,01,41,12.90
2019,05,08,01,42,13.00
2019,05,08,01,43,13.10
2019,05,08,01,44,13.30
2019,05,08,01,45,13.40
2019,05,08,01,46,13.50
2019,05,08,01,47,13.50
2019,05,08,01,48,13.60
2019,05,08,01,49,13.70
2019,05,08,01,50,13.80
2019,05,08,01,51,13.80
2019,05,08,01,52,13.90
2019,05,08,01,53,13.90
2019,05,08,01,54,14.00
2019,05,08,01,55,14.00
2019,05,08,01,56,14.10
2019,05,08,01,57,14.10
2019,05,08,01,58,14.10
2019,05,08,01,59,14.10
2019,05,08,02,00,14.10
2019,05,08,02,01,14.10
2019,05,08,02,02,14.10
2019,05,08,02,03,14.20
2019,05,08,02,04,14.20
2019,05,08,02,05,14.20
2019,05,08,02,06,14.20
2019,05,08,02,07,14.20
2019,05,08,02,08,14.30
2019,05,08,02,09,14.30
2019,05,08,02,10,14.30
2019,05,08,02,11,14.40
2019,05,08,02,12,14.40
2019,05,08,02,13,14.50
2019,05,08,02,14,14.50
2019,05,08,02,15,14.50
2019,05,08,02,16,14.60
2019,05,08,02,17,14.60
2019,05,08,02,18,14.60
2019,05,08,02,19,14.60
2019,05,08,02,20,14.60
2019,05,08,02,21,14.60
2019,05,08,02,22,14.60
2019,05,08,02,23,14.70
2019,05,08,02,24,14.70
2019,05,08,02,25,14.70
2019,05,08,02,26,14.70
2019,05,08,02,27,14.70
2019,05,08,02,28,14.70
2019,05,08,02,29,14.70
2019,05,08,02,30,14.70
2019,05,08,02,31,14.70
2019,05,08,02,32,14.70
2019,05,08,02,33,14.70
2019,05,08,02,34,14.70
2019,05,08,02,35,14.70
2019,05,08,02,36,14.70
2019,05,08,02,37,14.70
2019,05,08,02,38,14.70
2019,05,08,02,39,14.70
2019,05,08,02,40,14.70
2019,05,08,02,41,14.70
2019,05,08,02,42,14.70
2019,05,08,02,43,14.70
2019,05,08,02,44,14.70
2019,05,08,02,45,14.70
2019,05,08,02,46,14.60
2019,05,08,02,47,14.60
2019,05,08,02,48,14.60
2019,05,08,02,49,14.60
2019,05,08,02,50,14.60
2019,05,08,02,51,14.60
2019,05,08,02,52,14.50
2019,05,08,02,53,14.50
2019,05,08,02,54,14.50
2019,05,08,02,55,14.40
2019,05,08,02,56,14.40
2019,05,08,02,57,14.30
2019,05,08,02,58,14.30
2019,05,08,02,59,14.20
2019,05,08,03,00,14.20
2019,05,08,03,01,14.10
2019,05,08,03,02,14.10
2019,05,08,03,03,14.00
2019,05,08,03,04,13.90
2019,05,08,03,05,13.90
2019,05,08,03,06,13.80
2019,05,08,03,07,13.70
2019,05,08,03,08,13.70
2019,05,08,03,09,13.70
2019,05,08,03,10,13.70
2019,05,08,03,11,13.70
2019,05,08,03,12,13.70
2019,05,08,03,13,13.70
2019,05,08,03,14,13.70
2019,05,08,03,15,13.70
2019,05,08,03,16,13.70
2019,05,08,03,17,13.70
2019,05,08,03,18,13.70
2019,05,08,03,19,13.70
2019,05,08,03,20,13.70
2019,05,08,03,21,13.70
2019,05,08,03,22,13.70
2019,05,08,03,23,13.70
2019,05,08,03,24,13.80
2019,05,08,03,25,13.80
2019,05,08,03,26,13.90
2019,05,08,03,27,13.90
2019,05,08,03,28,14.00
2019,05,08,03,29,14.00
2019,05,08,03,30,14.10
2019,05,08,03,31,14.10
2019,05,08,03,32,14.10
2019,05,08,03,33,14.20
2019,05,08,03,34,14.20
2019,05,08,03,35,14.20
2019,05,08,03,36,14.20
2019,05,08,03,37,14.20
2019,05,08,03,38,14.20
2019,05,08,03,39,14.20
2019,05,08,03,40,14.20
2019,05,08,03,41,14.20
2019,05,08,03,42,14.20
2019,05,08,03,43,14.20
2019,05,08,03,44,14.20
2019,05,08,03,45,14.20
2019,05,08,03,46,14.20
2019,05,08,03,47,14.20
2019,05,08,03,48,14.20
2019,05,08,03,49,14.20
2019,05,08,03,50,14.20
2019,05,08,03,51,14.20
2019,05,08,03,52,14.20
2019,05,08,03,53,14.20
2019,05,08,03,54,14.20
2019,05,08,03,55,14.20
2019,05,08,03,56,14.20
2019,05,08,03,57,14.20
2019,05,08,03,58,14.20
2019,05,08,03,59,14.20
2019,05,08,04,00,14.20
2019,05,08,04,01,14.20
2019,05,08,04,02,14.20
2019,05,08,04,03,14.20
2019,05,08,04,04,14.20
2019,05,08,04,05,14.20
2019,05,08,04,06,14.10
2019,05,08,04,07,14.10
2019,05,08,04,08,14.10
2019,05,08,04,09,14.10
2019,05,08,04,10,14.10
2019,05,08,04,11,14.00
2019,05,08,04,12,14.00
2019,05,08,04,13,14.00
2019,05,08,04,14,14.00
2019,05,08,04,15,14.00
2019,05,08,04,16,14.00
2019,05,08,04,17,14.00
2019,05,08,04,18,14.00
2019,05,08,04,19,14.00
2019,05,08,04,20,14.00
2019,05,08,04,21,14.00
2019,05,08,04,22,14.10
2019,05,08,04,23,14.10
2019,05,08,04,24,14.10
2019,05,08,04,25,14.10
2019,05,08,04,26,14.00
2019,05,08,04,27,14.00
2019,05,08,04,28,14.00
2019,05,08,04,29,14.00
2019,05,08,04,30,14.00
2019,05,08,04,31,14.00
2019,05,08,04,32,13.90
2019,05,08,04,33,13.90
2019,05,08,04,34,13.90
2019,05,08,04,35,13.90
2019,05,08,04,36,13.80
2019,05,08,04,37,13.80
2019,05,08,04,38,13.80
2019,05,08,04,39,13.80
2019,05,08,04,40,13.70
2019,05,08,04,41,13.70
2019,05,08,04,42,13.70
2019,05,08,04,43,13.60
2019,05,08,04,44,13.60
2019,05,08,04,45,13.60
2019,05,08,04,46,13.60
2019,05,08,04,47,13.50
2019,05,08,04,48,13.50
2019,05,08,04,49,13.40
2019,05,08,04,50,13.40
2019,05,08,04,51,13.40
2019,05,08,04,52,13.30
2019,05,08,04,53,13.30
2019,05,08,04,54,13.30
2019,05,08,04,55,13.30
2019,05,08,04,56,13.30
2019,05,08,04,57,13.30
2019,05,08,04,58,13.30
2019,05,08,04,59,13.30
2019,05,08,05,00,13.30
2019,05,08,05,01,13.20
2019,05,08,05,02,13.20
2019,05,08,05,03,13.20
2019,05,08,05,04,13.20
2019,05,08,05,05,13.20
2019,05,08,05,06,13.20
2019,05,08,05,07,13.20
2019,05,08,05,08,13.20
2019,05,08,05,09,13.20
2019,05,08,05,10,13.20
2019,05,08,05,11,13.20
2019,05,08,05,12,13.20
2019,05,08,05,13,13.20
2019,05,08,05,14,13.20
2019,05,08,05,15,13.20
2019,05,08,05,16,13.20
2019,05,08,05,17,13.20
2019,05,08,05,18,13.20
2019,05,08,05,19,13.20
2019,05,08,05,20,13.20
2019,05,08,05,21,13.20
2019,05,08,05,22,13.20
2019,05,08,05,23,13.10
2019,05,08,05,24,13.10
2019,05,08,05,25,13.10
2019,05,08,05,26,13.10
2019,05,08,05,27,13.10
2019,05,08,05,28,13.10
2019,05,08,05,29,13.10
2019,05,08,05,30,13.10
2019,05,08,05,31,13.10
2019,05,08,05,32,13.00
2019,05,08,05,33,13.00
2019,05,08,05,34,13.00
2019,05,08,05,35,13.00
2019,05,08,05,36,13.00
2019,05,08,05,37,13.00
2019,05,08,05,38,12.90
2019,05,08,05,39,12.90
2019,05,08,05,40,12.90
2019,05,08,05,41,12.90
2019,05,08,05,42,12.90
2019,05,08,05,43,12.90
2019,05,08,05,44,12.90
2019,05,08,05,45,12.90
2019,05,08,05,46,12.90
2019,05,08,05,47,12.80
2019,05,08,05,48,12.80
2019,05,08,05,49,12.80
2019,05,08,05,50,12.80
2019,05,08,05,51,12.80
2019,05,08,05,52,12.80
2019,05,08,05,53,12.70
2019,05,08,05,54,12.70
2019,05,08,05,55,12.70
2019,05,08,05,56,12.70
2019,05,08,05,57,12.70
2019,05,08,05,58,12.60
2019,05,08,05,59,12.60
2019,05,08,06,00,12.60
2019,05,08,06,01,12.60
2019,05,08,06,02,12.50
2019,05,08,06,03,12.50
2019,05,08,06,04,12.50
2019,05,08,06,05,12.40
2019,05,08,06,06,12.40
2019,05,08,06,07,12.40
2019,05,08,06,08,12.30
2019,05,08,06,09,12.30
2019,05,08,06,10,12.30
2019,05,08,06,11,12.30
2019,05,08,06,12,12.30
2019,05,08,06,13,12.20
2019,05,08,06,14,12.20
2019,05,08,06,15,12.20
2019,05,08,06,16,12.20
2019,05,08,06,17,12.20
2019,05,08,06,18,12.20
2019,05,08,06,19,12.20
2019,05,08,06,20,12.30
2019,05,08,06,21,12.30
2019,05,08,06,22,12.30
2019,05,08,06,23,12.30
2019,05,08,06,24,12.30
2019,05,08,06,25,12.30
2019,05,08,06,26,12.30
2019,05,08,06,27,12.30
2019,05,08,06,28,12.30
2019,05,08,06,29,12.30
2019,05,08,06,30,12.30
2019,05,08,06,31,12.30
2019,05,08,06,32,12.30
2019,05,08,06,33,12.30
2019,05,08,06,34,12.30
2019,05,08,06,35,12.30
2019,05,08,06,36,12.40
2019,05,08,06,37,12.40
2019,05,08,06,38,12.40
2019,05,08,06,39,12.40
2019,05,08,06,40,12.40
2019,05,08,06,41,12.40
2019,05,08,06,42,12.40
2019,05,08,06,43,12.40
2019,05,08,06,44,12.40
2019,05,08,06,45,12.50
2019,05,08,06,46,12.50
2019,05,08,06,47,12.50
2019,05,08,06,48,12.50
2019,05,08,06,49,12.60
2019,05,08,06,50,12.50
2019,05,08,06,51,12.50
2019,05,08,06,52,12.50
2019,05,08,06,53,12.50
2019,05,08,06,54,12.50
2019,05,08,06,55,12.50
2019,05,08,06,56,12.50
2019,05,08,06,57,12.50
2019,05,08,06,58,12.50
2019,05,08,06,59,12.50
2019,05,08,07,00,12.50
2019,05,08,07,01,12.50
2019,05,08,07,02,12.50
2019,05,08,07,03,12.50
2019,05,08,07,04,12.60
2019,05,08,07,05,12.60
2019,05,08,07,06,12.60
2019,05,08,07,07,12.60
2019,05,08,07,08,12.60
2019,05,08,07,09,12.60
2019,05,08,07,10,12.60
2019,05,08,07,11,12.60
2019,05,08,07,12,12.60
2019,05,08,07,13,12.60
2019,05,08,07,14,12.60
2019,05,08,07,15,12.60
2019,05,08,07,16,12.60
2019,05,08,07,17,12.60
2019,05,08,07,18,12.60
2019,05,08,07,19,12.60
2019,05,08,07,20,12.60
2019,05,08,07,21,12.60
2019,05,08,07,22,12.60
2019,05,08,07,23,12.60
2019,05,08,07,24,12.60
2019,05,08,07,25,12.60
2019,05,08,07,26,12.60
2019,05,08,07,27,12.60
2019,05,08,07,28,12.60
2019,05,08,07,29,12.60
2019,05,08,07,30,12.70
2019,05,08,07,31,12.70
2019,05,08,07,32,12.70
2019,05,08,07,33,12.70
2019,05,08,07,34,12.80
2019,05,08,07,35,12.80
2019,05,08,07,36,12.80
2019,05,08,07,37,12.80
2019,05,08,07,38,12.80
2019,05,08,07,39,12.80
2019,05,08,07,40,12.80
2019,05,08,07,41,12.80
2019,05,08,07,42,12.80
2019,05,08,07,43,12.90
2019,05,08,07,44,12.90
2019,05,08,07,45,12.90
2019,05,08,07,46,12.90
2019,05,08,07,47,12.90
2019,05,08,07,48,12.90
2019,05,08,07,49,12.90
2019,05,08,07,50,12.90
2019,05,08,07,51,12.90
2019,05,08,07,52,12.90
2019,05,08,07,53,13.00
2019,05,08,07,54,13.00
2019,05,08,07,55,13.00
2019,05,08,07,56,13.00
2019,05,08,07,57,13.00
2019,05,08,07,58,13.00
2019,05,08,07,59,13.00
2019,05,08,08,00,13.00
2019,05,08,08,01,13.00
2019,05,08,08,02,13.00
2019,05,08,08,03,13.00
2019,05,08,08,04,13.00
2019,05,08,08,05,13.00
2019,05,08,08,06,13.00
2019,05,08,08,07,13.00
2019,05,08,08,08,13.00
2019,05,08,08,09,13.00
2019,05,08,08,10,13.00
2019,05,08,08,11,13.00
2019,05,08,08,12,13.10
2019,05,08,08,13,13.10
2019,05,08,08,14,13.10
2019,05,08,08,15,13.10
2019,05,08,08,16,13.10
2019,05,08,08,17,13.10
2019,05,08,08,18,13.10
2019,05,08,08,19,13.10
2019,05,08,08,20,13.10
2019,05,08,08,21,13.10
2019,05,08,08,22,13.20
2019,05,08,08,23,13.20
2019,05,08,08,24,13.20
2019,05,08,08,25,13.20
2019,05,08,08,26,13.20
2019,05,08,08,27,13.20
2019,05,08,08,28,13.20
2019,05,08,08,29,13.20
2019,05,08,08,30,13.20
2019,05,08,08,31,13.20
2019,05,08,08,32,13.20
2019,05,08,08,33,13.30
2019,05,08,08,34,13.30
2019,05,08,08,35,13.30
2019,05,08,08,36,13.30
2019,05,08,08,37,13.30
2019,05,08,08,38,13.30
2019,05,08,08,39,13.40
2019,05,08,08,40,13.40
2019,05,08,08,41,13.40
2019,05,08,08,42,13.40
2019,05,08,08,43,13.40
2019,05,08,08,44,13.40
2019,05,08,08,45,13.40
2019,05,08,08,46,13.40
2019,05,08,08,47,13.40
2019,05,08,08,48,13.50
2019,05,08,08,49,13.50
2019,05,08,08,50,13.50
2019,05,08,08,51,13.50
2019,05,08,08,52,13.50
2019,05,08,08,53,13.60
2019,05,08,08,54,13.60
2019,05,08,08,55,13.60
2019,05,08,08,56,13.60
2019,05,08,08,57,13.60
2019,05,08,08,58,13.60
2019,05,08,08,59,13.60
2019,05,08,09,00,13.60
2019,05,08,09,01,13.70
2019,05,08,09,02,13.70
2019,05,08,09,03,13.70
2019,05,08,09,04,13.80
2019,05,08,09,05,13.80
2019,05,08,09,06,13.80
2019,05,08,09,07,13.90
2019,05,08,09,08,13.90
2019,05,08,09,09,13.90
2019,05,08,09,10,13.90
2019,05,08,09,11,13.90
2019,05,08,09,12,14.00
2019,05,08,09,13,13.90
2019,05,08,09,14,14.00
2019,05,08,09,15,14.00
2019,05,08,09,16,14.00
2019,05,08,09,17,14.00
2019,05,08,09,18,14.00
2019,05,08,09,19,14.00
2019,05,08,09,20,14.00
2019,05,08,09,21,14.00
2019,05,08,09,22,14.00
2019,05,08,09,23,14.00
2019,05,08,09,24,14.00
2019,05,08,09,25,14.10
2019,05,08,09,26,14.10
2019,05,08,09,27,14.10
2019,05,08,09,28,14.20
2019,05,08,09,29,14.20
2019,05,08,09,30,14.20
2019,05,08,09,31,14.30
2019,05,08,09,32,14.30
2019,05,08,09,33,14.30
2019,05,08,09,34,14.20
2019,05,08,09,35,14.20
2019,05,08,09,36,14.30
2019,05,08,09,37,14.30
2019,05,08,09,38,14.30
2019,05,08,09,39,14.40
2019,05,08,09,40,14.40
2019,05,08,09,41,14.50
2019,05,08,09,42,14.50
2019,05,08,09,43,14.60
2019,05,08,09,44,14.60
2019,05,08,09,45,14.70
2019,05,08,09,46,14.70
2019,05,08,09,47,14.70
2019,05,08,09,48,14.70
2019,05,08,09,49,14.70
2019,05,08,09,50,14.70
2019,05,08,09,51,14.70
2019,05,08,09,52,14.60
2019,05,08,09,53,14.60
2019,05,08,09,54,14.60
2019,05,08,09,55,14.60
2019,05,08,09,56,14.50
2019,05,08,09,57,14.50
2019,05,08,09,58,14.50
2019,05,08,09,59,14.50
2019,05,08,10,00,14.50
2019,05,08,10,01,14.50
2019,05,08,10,02,14.50
2019,05,08,10,03,14.50
2019,05,08,10,04,14.50
2019,05,08,10,05,14.50
2019,05,08,10,06,14.50
2019,05,08,10,07,14.50
2019,05,08,10,08,14.50
2019,05,08,10,09,14.60
2019,05,08,10,10,14.60
2019,05,08,10,11,14.60
2019,05,08,10,12,14.60
2019,05,08,10,13,14.70
2019,05,08,10,14,14.70
2019,05,08,10,15,14.70
2019,05,08,10,16,14.70
2019,05,08,10,17,14.70
2019,05,08,10,18,14.80
2019,05,08,10,19,14.80
2019,05,08,10,20,14.70
2019,05,08,10,21,14.80
2019,05,08,10,22,14.80
2019,05,08,10,23,14.80
2019,05,08,10,24,14.80
2019,05,08,10,25,14.80
2019,05,08,10,26,14.80
2019,05,08,10,27,14.80
2019,05,08,10,28,14.90
2019,05,08,10,29,14.90
2019,05,08,10,30,15.00
2019,05,08,10,31,15.00
2019,05,08,10,32,15.00
2019,05,08,10,33,15.10
2019,05,08,10,34,15.10
2019,05,08,10,35,15.20
2019,05,08,10,36,15.20
2019,05,08,10,37,15.20
2019,05,08,10,38,15.30
2019,05,08,10,39,15.30
2019,05,08,10,40,15.40
2019,05,08,10,41,15.40
2019,05,08,10,42,15.50
2019,05,08,10,43,15.50
2019,05,08,10,44,15.60
2019,05,08,10,45,15.60
2019,05,08,10,46,15.60
2019,05,08,10,47,15.60
2019,05,08,10,48,15.70
2019,05,08,10,49,15.70
2019,05,08,10,50,15.70
2019,05,08,10,51,15.70
2019,05,08,10,52,15.70
2019,05,08,10,53,15.80
2019,05,08,10,54,15.80
2019,05,08,10,55,15.90
2019,05,08,10,56,15.90
2019,05,08,10,57,15.90
2019,05,08,10,58,15.90
2019,05,08,10,59,15.90
2019,05,08,11,00,15.90
2019,05,08,11,01,15.90
2019,05,08,11,02,15.90
2019,05,08,11,03,15.90
2019,05,08,11,04,15.90
2019,05,08,11,05,15.90
2019,05,08,11,06,15.80
2019,05,08,11,07,15.80
2019,05,08,11,08,15.80
2019,05,08,11,09,15.80
2019,05,08,11,10,15.80
2019,05,08,11,11,15.80
2019,05,08,11,12,15.70
2019,05,08,11,13,15.60
2019,05,08,11,14,15.60
2019,05,08,11,15,15.50
2019,05,08,11,16,15.50
2019,05,08,11,17,15.50
2019,05,08,11,18,15.60
2019,05,08,11,19,15.60
2019,05,08,11,20,15.70
2019,05,08,11,21,15.70
2019,05,08,11,22,15.80
2019,05,08,11,23,15.90
2019,05,08,11,24,16.00
2019,05,08,11,25,16.00
2019,05,08,11,26,16.10
2019,05,08,11,27,16.20
2019,05,08,11,28,16.20
2019,05,08,11,29,16.30
2019,05,08,11,30,16.30
2019,05,08,11,31,16.30
2019,05,08,11,32,16.30
2019,05,08,11,33,16.30
2019,05,08,11,34,16.30
2019,05,08,11,35,16.30
2019,05,08,11,36,16.40
2019,05,08,11,37,16.50
2019,05,08,11,38,16.60
2019,05,08,11,39,16.70
2019,05,08,11,40,16.70
2019,05,08,11,41,16.80
2019,05,08,11,42,16.90
2019,05,08,11,43,17.00
2019,05,08,11,44,17.00
2019,05,08,11,45,17.10
2019,05,08,11,46,17.10
2019,05,08,11,47,17.10
2019,05,08,11,48,17.10
2019,05,08,11,49,17.10
2019,05,08,11,50,17.10
2019,05,08,11,51,17.10
2019,05,08,11,52,17.10
2019,05,08,11,53,17.00
2019,05,08,11,54,17.00
2019,05,08,11,55,17.00
2019,05,08,11,56,17.00
2019,05,08,11,57,17.00
2019,05,08,11,58,16.90
2019,05,08,11,59,16.80
2019,05,08,12,00,16.70
2019,05,08,12,01,16.60
2019,05,08,12,02,16.50
2019,05,08,12,03,16.40
2019,05,08,12,04,16.40
2019,05,08,12,05,16.50
2019,05,08,12,06,16.50
2019,05,08,12,07,16.60
2019,05,08,12,08,16.70
2019,05,08,12,09,16.80
2019,05,08,12,10,16.90
2019,05,08,12,11,17.00
2019,05,08,12,12,17.20
2019,05,08,12,13,17.20
2019,05,08,12,14,17.20
2019,05,08,12,15,17.20
2019,05,08,12,16,17.20
2019,05,08,12,17,17.30
2019,05,08,12,18,17.30
2019,05,08,12,19,17.40
2019,05,08,12,20,17.40
2019,05,08,12,21,17.50
2019,05,08,12,22,17.60
2019,05,08,12,23,17.70
2019,05,08,12,24,17.80
2019,05,08,12,25,17.80
2019,05,08,12,26,17.90
2019,05,08,12,27,17.80
2019,05,08,12,28,17.80
2019,05,08,12,29,17.80
2019,05,08,12,30,17.80
2019,05,08,12,31,17.80
2019,05,08,12,32,17.80
2019,05,08,12,33,17.80
2019,05,08,12,34,17.80
2019,05,08,12,35,17.80
2019,05,08,12,36,17.80
2019,05,08,12,37,17.70
2019,05,08,12,38,17.80
2019,05,08,12,39,17.80
2019,05,08,12,40,17.70
2019,05,08,12,41,17.70
2019,05,08,12,42,17.70
2019,05,08,12,43,17.70
2019,05,08,12,44,17.60
2019,05,08,12,45,17.60
2019,05,08,12,46,17.70
2019,05,08,12,47,17.70
2019,05,08,12,48,17.80
2019,05,08,12,49,17.80
2019,05,08,12,50,17.80
2019,05,08,12,51,17.80
2019,05,08,12,52,17.80
2019,05,08,12,53,17.80
2019,05,08,12,54,17.80
2019,05,08,12,55,17.90
2019,05,08,12,56,17.90
2019,05,08,12,57,18.00
2019,05,08,12,58,18.00
2019,05,08,12,59,18.00
2019,05,08,13,00,18.00
2019,05,08,13,01,17.90
2019,05,08,13,02,17.90
2019,05,08,13,03,17.90
2019,05,08,13,04,17.90
2019,05,08,13,05,17.90
2019,05,08,13,06,17.80
2019,05,08,13,07,17.80
2019,05,08,13,08,17.70
2019,05,08,13,09,17.70
2019,05,08,13,10,17.60
2019,05,08,13,11,17.60
2019,05,08,13,12,17.60
2019,05,08,13,13,17.60
2019,05,08,13,14,17.60
2019,05,08,13,15,17.70
2019,05,08,13,16,17.70
2019,05,08,13,17,17.70
2019,05,08,13,18,17.70
2019,05,08,13,19,17.70
2019,05,08,13,20,17.70
2019,05,08,13,21,17.80
2019,05,08,13,22,17.80
2019,05,08,13,23,17.70
2019,05,08,13,24,17.70
2019,05,08,13,25,17.70
2019,05,08,13,26,17.70
2019,05,08,13,27,17.70
2019,05,08,13,28,17.80
2019,05,08,13,29,17.90
2019,05,08,13,30,17.90
2019,05,08,13,31,17.90
2019,05,08,13,32,17.90
2019,05,08,13,33,17.90
2019,05,08,13,34,17.90
2019,05,08,13,35,17.90
2019,05,08,13,36,17.90
2019,05,08,13,37,17.90
2019,05,08,13,38,17.80
2019,05,08,13,39,17.80
2019,05,08,13,40,17.80
2019,05,08,13,41,17.80
2019,05,08,13,42,17.80
2019,05,08,13,43,17.80
2019,05,08,13,44,17.80
2019,05,08,13,45,17.80
2019,05,08,13,46,17.80
2019,05,08,13,47,17.80
2019,05,08,13,48,17.80
2019,05,08,13,49,17.90
2019,05,08,13,50,18.00
2019,05,08,13,51,18.10
2019,05,08,13,52,18.20
2019,05,08,13,53,18.20
2019,05,08,13,54,18.30
2019,05,08,13,55,18.40
2019,05,08,13,56,18.50
2019,05,08,13,57,18.50
2019,05,08,13,58,18.60
2019,05,08,13,59,18.60
2019,05,08,14,00,18.70
2019,05,08,14,01,18.60
2019,05,08,14,02,18.70
2019,05,08,14,03,18.70
2019,05,08,14,04,18.70
2019,05,08,14,05,18.80
2019,05,08,14,06,18.80
2019,05,08,14,07,18.90
2019,05,08,14,08,19.00
2019,05,08,14,09,19.00
2019,05,08,14,10,19.00
2019,05,08,14,11,19.10
2019,05,08,14,12,19.20
2019,05,08,14,13,19.20
2019,05,08,14,14,19.20
2019,05,08,14,15,19.30
2019,05,08,14,16,19.40
2019,05,08,14,17,19.40
2019,05,08,14,18,19.40
2019,05,08,14,19,19.50
2019,05,08,14,20,19.50
2019,05,08,14,21,19.50
2019,05,08,14,22,19.40
2019,05,08,14,23,19.30
2019,05,08,14,24,19.30
2019,05,08,14,25,19.30
2019,05,08,14,26,19.30
2019,05,08,14,27,19.40
2019,05,08,14,28,19.40
2019,05,08,14,29,19.40
2019,05,08,14,30,19.40
2019,05,08,14,31,19.40
2019,05,08,14,32,19.30
2019,05,08,14,33,19.10
2019,05,08,14,34,19.10
2019,05,08,14,35,19.10
2019,05,08,14,36,19.10
2019,05,08,14,37,19.10
2019,05,08,14,38,19.20
2019,05,08,14,39,19.20
2019,05,08,14,40,19.20
2019,05,08,14,41,19.20
2019,05,08,14,42,19.20
2019,05,08,14,43,19.20
2019,05,08,14,44,19.30
2019,05,08,14,45,19.40
2019,05,08,14,46,19.40
2019,05,08,14,47,19.40
2019,05,08,14,48,19.40
2019,05,08,14,49,19.50
2019,05,08,14,50,19.50
2019,05,08,14,51,19.60
2019,05,08,14,52,19.60
2019,05,08,14,53,19.60
2019,05,08,14,54,19.70
2019,05,08,14,55,19.70
2019,05,08,14,56,19.70
2019,05,08,14,57,19.70
2019,05,08,14,58,19.80
2019,05,08,14,59,19.80
2019,05,08,15,00,19.80
2019,05,08,15,01,19.80
2019,05,08,15,02,19.80
2019,05,08,15,03,19.80
2019,05,08,15,04,19.80
2019,05,08,15,05,19.90
2019,05,08,15,06,19.90
2019,05,08,15,07,19.80
2019,05,08,15,08,19.70
2019,05,08,15,09,19.60
2019,05,08,15,10,19.60
2019,05,08,15,11,19.60
2019,05,08,15,12,19.60
2019,05,08,15,13,19.60
2019,05,08,15,14,19.60
2019,05,08,15,15,19.50
2019,05,08,15,16,19.50
2019,05,08,15,17,19.60
2019,05,08,15,18,19.60
2019,05,08,15,19,19.60
2019,05,08,15,20,19.60
2019,05,08,15,21,19.60
2019,05,08,15,22,19.50
2019,05,08,15,23,19.40
2019,05,08,15,24,19.40
2019,05,08,15,25,19.50
2019,05,08,15,26,19.60
2019,05,08,15,27,19.70
2019,05,08,15,28,19.70
2019,05,08,15,29,19.70
2019,05,08,15,30,19.70
2019,05,08,15,31,19.70
2019,05,08,15,32,19.60
2019,05,08,15,33,19.50
2019,05,08,15,34,19.50
2019,05,08,15,35,19.50
2019,05,08,15,36,19.50
2019,05,08,15,37,19.60
2019,05,08,15,38,19.60
2019,05,08,15,39,19.60
2019,05,08,15,40,19.70
2019,05,08,15,41,19.80
2019,05,08,15,42,19.80
2019,05,08,15,43,19.80
2019,05,08,15,44,19.90
2019,05,08,15,45,20.00
2019,05,08,15,46,19.90
2019,05,08,15,47,20.00
2019,05,08,15,48,20.00
2019,05,08,15,49,20.10
2019,05,08,15,50,20.10
2019,05,08,15,51,20.20
2019,05,08,15,52,20.30
2019,05,08,15,53,20.40
2019,05,08,15,54,20.40
2019,05,08,15,55,20.50
2019,05,08,15,56,20.50
2019,05,08,15,57,20.40
2019,05,08,15,58,20.40
2019,05,08,15,59,20.30
2019,05,08,16,00,20.20
2019,05,08,16,01,20.20
2019,05,08,16,02,20.20
2019,05,08,16,03,20.20
2019,05,08,16,04,20.10
2019,05,08,16,05,20.10
2019,05,08,16,06,20.10
2019,05,08,16,07,20.10
2019,05,08,16,08,20.00
2019,05,08,16,09,19.90
2019,05,08,16,10,19.80
2019,05,08,16,11,19.70
2019,05,08,16,12,19.70
2019,05,08,16,13,19.60
2019,05,08,16,14,19.60
2019,05,08,16,15,19.60
2019,05,08,16,16,19.60
2019,05,08,16,17,19.70
2019,05,08,16,18,19.70
2019,05,08,16,19,19.70
2019,05,08,16,20,19.70
2019,05,08,16,21,19.70
2019,05,08,16,22,19.60
2019,05,08,16,23,19.60
2019,05,08,16,24,19.70
2019,05,08,16,25,19.70
2019,05,08,16,26,19.70
2019,05,08,16,27,19.70
2019,05,08,16,28,19.80
2019,05,08,16,29,19.80
2019,05,08,16,30,19.90
2019,05,08,16,31,19.90
2019,05,08,16,32,20.00
2019,05,08,16,33,20.00
2019,05,08,16,34,20.10
2019,05,08,16,35,20.10
2019,05,08,16,36,20.20
2019,05,08,16,37,20.20
2019,05,08,16,38,20.20
2019,05,08,16,39,20.30
2019,05,08,16,40,20.30
2019,05,08,16,41,20.30
2019,05,08,16,42,20.30
2019,05,08,16,43,20.30
2019,05,08,16,44,20.20
2019,05,08,16,45,20.20
2019,05,08,16,46,20.20
2019,05,08,16,47,20.20
2019,05,08,16,48,20.20
2019,05,08,16,49,20.30
2019,05,08,16,50,20.30
2019,05,08,16,51,20.30
2019,05,08,16,52,20.30
2019,05,08,16,53,20.30
2019,05,08,16,54,20.30
2019,05,08,16,55,20.40
2019,05,08,16,56,20.40
2019,05,08,16,57,20.50
2019,05,08,16,58,20.50
2019,05,08,16,59,20.60
2019,05,08,17,00,20.70
2019,05,08,17,01,20.80
2019,05,08,17,02,20.90
2019,05,08,17,03,20.90
2019,05,08,17,04,20.90
2019,05,08,17,05,21.00
2019,05,08,17,06,20.90
2019,05,08,17,07,20.90
2019,05,08,17,08,20.90
2019,05,08,17,09,20.90
2019,05,08,17,10,20.90
2019,05,08,17,11,20.80
2019,05,08,17,12,20.80
2019,05,08,17,13,20.80
2019,05,08,17,14,20.80
2019,05,08,17,15,20.80
2019,05,08,17,16,20.70
2019,05,08,17,17,20.60
2019,05,08,17,18,20.60
2019,05,08,17,19,20.50